| time (UTC) | temp F | wind direction | speed MPH | gust MPH | rain 1hr in | rain 24hr in | rain mn in | humidity % | barometer mb |
| 20260906093050 | 54 | 51 | 0.0 | 0.0 | 0.00 | 0.02 | 0.00 | 70 | 1015.1 |
| 20260906091545 | 54 | 51 | 0.0 | 0.0 | 0.00 | 0.02 | 0.00 | 71 | 1015.0 |
| 20260906090058 | 54 | 51 | 0.0 | 0.0 | 0.00 | 0.02 | 0.00 | 71 | 1014.9 |
| 20260906084543 | 54 | 51 | 0.0 | 0.0 | 0.00 | 0.02 | 0.00 | 70 | 1014.8 |
| 20260906083042 | 54 | 51 | 0.0 | 0.0 | 0.00 | 0.02 | 0.00 | 71 | 1014.9 |
| 20260906081540 | 54 | 51 | 0.0 | 0.0 | 0.00 | 0.02 | 0.00 | 71 | 1015.0 |
| 20260906080039 | 54 | 51 | 0.0 | 0.0 | 0.00 | 0.02 | 0.00 | 71 | 1015.0 |
| 20260906074539 | 54 | 51 | 0.0 | 0.0 | 0.00 | 0.02 | 0.00 | 71 | 1015.1 |
| 20260906073054 | 54 | 51 | 0.0 | 0.0 | 0.00 | 0.02 | 0.00 | 71 | 1015.1 |
| 20260906071536 | 54 | 51 | 0.0 | 1.0 | 0.00 | 0.02 | 0.00 | 71 | 1015.1 |
| 20260906070037 | 54 | 89 | 0.0 | 1.0 | 0.00 | 0.02 | 0.02 | 72 | 1015.2 |
| 20260906064534 | 54 | 38 | 0.0 | 0.0 | 0.00 | 0.02 | 0.02 | 72 | 1015.1 |
| 20260906063044 | 54 | 38 | 0.0 | 0.0 | 0.00 | 0.02 | 0.02 | 72 | 1015.1 |
| 20260906061532 | 54 | 30 | 0.0 | 0.0 | 0.00 | 0.02 | 0.02 | 73 | 1015.2 |
| 20260906060030 | 54 | 30 | 0.0 | 0.0 | 0.00 | 0.02 | 0.02 | 74 | 1015.2 |
| 20260906054530 | 54 | 30 | 0.0 | 0.0 | 0.00 | 0.02 | 0.02 | 75 | 1015.2 |
| 20260906053030 | 55 | 30 | 0.0 | 0.0 | 0.00 | 0.02 | 0.02 | 75 | 1015.2 |
| 20260906051549 | 55 | 30 | 0.0 | 0.0 | 0.00 | 0.02 | 0.02 | 76 | 1015.3 |
| 20260906050038 | 55 | 30 | 0.0 | 1.0 | 0.00 | 0.02 | 0.02 | 76 | 1015.4 |
| 20260906044534 | 56 | 30 | 0.0 | 2.0 | 0.00 | 0.02 | 0.02 | 76 | 1015.6 |
| 20260906043028 | 56 | 30 | 0.0 | 1.0 | 0.00 | 0.02 | 0.02 | 76 | 1015.7 |
| 20260906041528 | 57 | 30 | 0.0 | 1.0 | 0.00 | 0.02 | 0.02 | 76 | 1015.7 |
| 20260906040034 | 57 | 30 | 0.0 | 0.0 | 0.00 | 0.02 | 0.02 | 76 | 1015.6 |
| 20260906034533 | 58 | 30 | 0.0 | 1.0 | 0.00 | 0.02 | 0.02 | 77 | 1015.4 |
| 20260906033026 | 59 | 30 | 0.0 | 0.0 | 0.00 | 0.02 | 0.02 | 78 | 1015.3 |
| 20260906031536 | 60 | 30 | 0.0 | 2.0 | 0.00 | 0.02 | 0.02 | 78 | 1015.3 |
| 20260906030025 | 61 | 30 | 0.0 | 1.0 | 0.00 | 0.02 | 0.02 | 78 | 1015.2 |
| 20260906024525 | 62 | 30 | 0.0 | 1.0 | 0.01 | 0.02 | 0.02 | 78 | 1015.3 |
| 20260906023024 | 63 | 30 | 0.0 | 1.0 | 0.02 | 0.02 | 0.02 | 78 | 1015.2 |
| 20260906021523 | 65 | 30 | 0.0 | 2.0 | 0.02 | 0.02 | 0.02 | 77 | 1015.3 |
| 20260906020023 | 67 | 360 | 0.0 | 2.0 | 0.02 | 0.02 | 0.02 | 72 | 1015.3 |
| 20260906014527 | 69 | 82 | 1.0 | 2.0 | 0.01 | 0.01 | 0.01 | 65 | 1015.3 |
| 20260906013021 | 69 | 355 | 0.0 | 5.0 | 0.00 | 0.00 | 0.00 | 60 | 1015.4 |
| 20260906011521 | 70 | 333 | 2.0 | 6.0 | 0.00 | 0.00 | 0.00 | 59 | 1015.3 |
| 20260906010020 | 70 | 322 | 1.0 | 5.0 | 0.00 | 0.00 | 0.00 | 58 | 1015.3 |
| 20260906004520 | 70 | 304 | 2.0 | 6.0 | 0.00 | 0.00 | 0.00 | 56 | 1015.3 |
| 20260906003019 | 70 | 234 | 2.0 | 7.0 | 0.00 | 0.00 | 0.00 | 57 | 1015.4 |
| 20260906001518 | 70 | 250 | 0.0 | 6.0 | 0.00 | 0.00 | 0.00 | 58 | 1015.4 |
| 20260906000018 | 70 | 236 | 3.0 | 6.0 | 0.00 | 0.01 | 0.00 | 58 | 1015.3 |
| 20260905234517 | 70 | 229 | 4.0 | 9.0 | 0.00 | 0.01 | 0.00 | 57 | 1015.3 |
| 20260905233018 | 70 | 228 | 5.0 | 8.0 | 0.00 | 0.01 | 0.00 | 57 | 1015.3 |
| 20260905231522 | 72 | 293 | 2.0 | 9.0 | 0.00 | 0.01 | 0.00 | 56 | 1015.4 |
| 20260905230019 | 70 | 45 | 0.0 | 4.0 | 0.00 | 0.03 | 0.00 | 58 | 1015.5 |
| 20260905224511 | 69 | 153 | 1.0 | 4.0 | 0.00 | 0.03 | 0.00 | 59 | 1015.6 |
| 20260905223010 | 69 | 257 | 1.0 | 6.0 | 0.00 | 0.03 | 0.00 | 60 | 1015.7 |
| 20260905221508 | 70 | 260 | 0.0 | 5.0 | 0.00 | 0.03 | 0.00 | 62 | 1015.8 |
| 20260905220005 | 68 | 213 | 1.0 | 5.0 | 0.00 | 0.05 | 0.00 | 65 | 1016.1 |
| 20260905214504 | 68 | 88 | 3.0 | 6.0 | 0.00 | 0.05 | 0.00 | 64 | 1016.2 |
| 20260905213001 | 67 | 168 | 3.0 | 7.0 | 0.00 | 0.05 | 0.00 | 68 | 1016.3 |
| 20260905211501 | 66 | 294 | 1.0 | 3.0 | 0.00 | 0.05 | 0.00 | 66 | 1016.4 |
| 20260905210107 | 66 | 310 | 0.0 | 3.0 | 0.00 | 0.05 | 0.00 | 68 | 1016.4 |
| 20260905204600 | 66 | 360 | 1.0 | 3.0 | 0.00 | 0.05 | 0.00 | 68 | 1016.5 |
| 20260905203111 | 66 | 251 | 1.0 | 6.0 | 0.00 | 0.05 | 0.00 | 67 | 1016.6 |
| 20260905201600 | 67 | 295 | 1.0 | 3.0 | 0.00 | 0.05 | 0.00 | 67 | 1016.5 |
| 20260905200105 | 66 | 212 | 0.0 | 3.0 | 0.00 | 0.05 | 0.00 | 67 | 1016.5 |
| 20260905194559 | 67 | 360 | 1.0 | 7.0 | 0.00 | 0.05 | 0.00 | 67 | 1016.5 |
| 20260905193058 | 65 | 296 | 1.0 | 5.0 | 0.00 | 0.05 | 0.00 | 71 | 1016.7 |
| 20260905191557 | 66 | 327 | 2.0 | 5.0 | 0.00 | 0.05 | 0.00 | 71 | 1016.8 |
| 20260905190057 | 67 | 34 | 2.0 | 6.0 | 0.00 | 0.05 | 0.00 | 72 | 1017.0 |
| 20260905184554 | 65 | 223 | 0.0 | 7.0 | 0.00 | 0.05 | 0.00 | 72 | 1017.1 |
| 20260905183049 | 64 | 85 | 0.0 | 5.0 | 0.00 | 0.05 | 0.00 | 72 | 1017.2 |
| 20260905181549 | 63 | 345 | 0.0 | 3.0 | 0.00 | 0.05 | 0.00 | 76 | 1017.2 |
| 20260905180046 | 63 | 132 | 1.0 | 4.0 | 0.00 | 0.05 | 0.00 | 78 | 1017.3 |
| 20260905174544 | 61 | 205 | 2.0 | 7.0 | 0.00 | 0.05 | 0.00 | 79 | 1017.4 |
| 20260905173040 | 61 | 219 | 0.0 | 3.0 | 0.00 | 0.05 | 0.00 | 80 | 1017.4 |
| 20260905171554 | 60 | 245 | 2.0 | 4.0 | 0.00 | 0.05 | 0.00 | 79 | 1017.4 |
| 20260905170037 | 60 | 229 | 3.0 | 5.0 | 0.00 | 0.05 | 0.00 | 79 | 1017.4 |
| 20260905164542 | 60 | 217 | 0.0 | 2.0 | 0.00 | 0.05 | 0.00 | 75 | 1017.3 |
| 20260905163033 | 58 | 173 | 0.0 | 2.0 | 0.00 | 0.05 | 0.00 | 66 | 1017.4 |
| 20260905161524 | 57 | 173 | 0.0 | 1.0 | 0.00 | 0.05 | 0.00 | 61 | 1017.5 |
| 20260905160022 | 56 | 173 | 0.0 | 1.0 | 0.00 | 0.05 | 0.00 | 60 | 1017.5 |
| 20260905154520 | 55 | 225 | 0.0 | 1.0 | 0.00 | 0.05 | 0.00 | 60 | 1017.5 |
| 20260905153021 | 54 | 251 | 0.0 | 0.0 | 0.00 | 0.05 | 0.00 | 60 | 1017.5 |
| 20260905151516 | 54 | 251 | 0.0 | 0.0 | 0.00 | 0.05 | 0.00 | 61 | 1017.6 |
| 20260905150012 | 53 | 251 | 0.0 | 0.0 | 0.00 | 0.05 | 0.00 | 62 | 1017.5 |
| 20260905144512 | 52 | 251 | 0.0 | 0.0 | 0.00 | 0.05 | 0.00 | 63 | 1017.4 |
| 20260905143009 | 52 | 251 | 0.0 | 0.0 | 0.00 | 0.05 | 0.00 | 63 | 1017.3 |
| 20260905141508 | 52 | 251 | 0.0 | 0.0 | 0.00 | 0.05 | 0.00 | 63 | 1017.2 |
| 20260905140007 | 52 | 251 | 0.0 | 0.0 | 0.00 | 0.07 | 0.00 | 63 | 1017.2 |
| 20260905134512 | 52 | 251 | 0.0 | 0.0 | 0.00 | 0.07 | 0.00 | 63 | 1017.1 |
| 20260905133007 | 52 | 251 | 0.0 | 0.0 | 0.00 | 0.07 | 0.00 | 63 | 1017.1 |
| 20260905131508 | 52 | 251 | 0.0 | 0.0 | 0.00 | 0.07 | 0.00 | 63 | 1017.1 |
| 20260905130003 | 52 | 251 | 0.0 | 0.0 | 0.00 | 0.09 | 0.00 | 63 | 1017.2 |
| 20260905124503 | 52 | 251 | 0.0 | 0.0 | 0.00 | 0.09 | 0.00 | 63 | 1017.0 |
| 20260905123001 | 52 | 251 | 0.0 | 0.0 | 0.00 | 0.09 | 0.00 | 64 | 1017.0 |
| 20260905121604 | 52 | 251 | 0.0 | 0.0 | 0.00 | 0.09 | 0.00 | 64 | 1016.8 |
| 20260905120100 | 52 | 251 | 0.0 | 0.0 | 0.00 | 0.09 | 0.00 | 64 | 1016.9 |
| 20260905114608 | 52 | 251 | 0.0 | 0.0 | 0.00 | 0.09 | 0.00 | 64 | 1016.8 |
| 20260905113058 | 52 | 251 | 0.0 | 0.0 | 0.00 | 0.09 | 0.00 | 64 | 1016.8 |
| 20260905111626 | 52 | 251 | 0.0 | 0.0 | 0.00 | 0.09 | 0.00 | 64 | 1016.7 |
| 20260905110107 | 52 | 251 | 0.0 | 0.0 | 0.00 | 0.09 | 0.00 | 64 | 1016.7 |
| 20260905104616 | 52 | 316 | 0.0 | 0.0 | 0.00 | 0.09 | 0.00 | 64 | 1016.8 |
| 20260905103056 | 52 | 316 | 0.0 | 0.0 | 0.00 | 0.09 | 0.00 | 64 | 1016.9 |
| 20260905101556 | 52 | 316 | 0.0 | 0.0 | 0.00 | 0.09 | 0.00 | 64 | 1016.9 |
| 20260905100053 | 51 | 316 | 0.0 | 0.0 | 0.00 | 0.09 | 0.00 | 65 | 1017.0 |
| 20260905094702 | 52 | 316 | 0.0 | 0.0 | 0.00 | 0.09 | 0.00 | 65 | 1016.9 |